www.pogodaiklimat.ru

Погода и климат >> Архив погоды >> Россия >> Астраханская область >> Харабали


ПОГОДА в Харабали

  • Прогноз погоды в Харабали
  • Монитор погоды в Харабали

АРХИВ ПОГОДЫ в Харабали

Время (UTC), дата Ветер
(напр.,м/с)
 
Видим.   Явления Облачность Т
(С)
Тd
(С)
f
(%)
Тe
(С)
Тes
(С)
Комфортность P
(гПа)
Po
(гПа)
Тmin
(С)
Tmax
(С)
R
(мм)
R24
(мм)
S
(см)
06 15.04 СВ 3 20 км 9/9 600 м
[Sc]
+17.4 +10.5 64 +17 +18 1014.5 1016.4
09 15.04 В 5 20 км 9/6 600 м
[Cu hum Ci fib]
+20.4 +7.9 44 +21 +24 комфорт 1014.8 1016.7
12 15.04 В 4
{10}
20 км 10/6 600 м
[Cb calv Ac trans Ci fib]
+20.6 +7.4 42 +22 +23 комфорт 1014.8 1016.6
15 15.04 В 3 20 км 10/3 600 м
[Cb calv Ac As Cs]
+19.3 +8.6 50 +20 +20 1014.7 1016.6 +21.3
18 15.04 В 2 20 км 10/0
[Cs]
+15.6 +8.4 62 +16 +16 1015.9 1017.8
21 15.04 В 3 20 км 6/0
[Cc]
+13.3 +7.0 66 +12 +12 1015.6 1017.6
00 16.04 СВ 4 20 км 9/0
[Ac As]
+11.8 +5.5 65 +10 +10 1014.6 1016.5
03 16.04 СВ 4 20 км 10/0
[Ac As Cs]
+11.0 +5.0 66 +9 +9 1014.4 1016.3 +10.9
06 16.04 СВ 4
{10}
20 км 10/0
[Ac As Cs]
+15.5 +6.5 55 +15 +18 1014.4 1016.3
09 16.04 В 6-11
{12}
20 км 9/9 600 м
[Sc]
+19.1 +4.6 38 +19 +20 1013.0 1014.9
12 16.04 СВ 4
{12}
20 км 10/9 300 м
[Frnb As op]
+19.4 +4.1 36 +20 +20 1011.3 1013.2
15 16.04 СВ 3 10 км слаб. ливневой дождь 10/10 600 м
[Cb cap]
+18.2 +6.2 45 +18 +18 1010.6 1012.5 +19.9 0.0
18 16.04 СВ 4 10 км слаб. ливневой дождь 10/10 600 м
[Cb cap]
+12.8 +8.5 75 +11 +11 1011.8 1013.7
21 16.04 СВ 6-11
{11}
20 км 10/10 600 м
[Cb cap]
+12.0 +7.6 74 +9 +9 1011.0 1012.9
00 17.04 СВ 7-13
{13}
10 км слаб. ливневой дождь 10/10 600 м
[Cb cap]
+10.7 +7.2 79 +7 +7 1009.9 1011.8
03 17.04 СВ 6-10
{13}
10 км слаб. ливневой дождь 10/10 600 м
[Cb cap]
+9.9 +5.9 76 +7 +7 1010.9 1012.8 +9.9 2
06 17.04 СВ 7-15
{16}
10 км слаб. ливневой дождь 10/10 600 м
[Cb cap]
+6.4 +2.7 77 +2 +2 1012.6 1014.6 +6.4
09 17.04 СВ 7-13
{16}
10 км слаб. дождь 10/8 300 м
[Frnb As op]
+6.1 +2.9 80 +1 +1 1014.2 1016.2
12 17.04 СВ 7-12
{16}
10 км слаб. ливневой дождь 10/10 600 м
[Cb cap]
+7.0 +3.0 76 +2 +2 1014.9 1016.9
15 17.04 СВ 8-15
{17}
20 км в посл. час ливневой дождь 10/10 600 м
[Cb cap]
+7.3 -4.9 42 +3 +3 1016.0 1017.9 +9.9 2
18 17.04 СВ 6-12
{15}
20 км {ливн. осадки} 4/4 600 м
[Sc]
+5.1 -9.9 33 +1 +1 1017.8 1019.8
21 17.04 С 6-12
{13}
20 км 3/3 600 м
[Sc]
+2.7 -10.6 37 -2 -2 1018.1 1020.1
00 18.04 С 5-10
{12}
20 км 3/0
[Ci fib]
+1.0 -9.7 45 -4 -4 1018.8 1020.9
03 18.04 С 6
{11}
20 км 4/0
[Ci fib]
-0.3 -9.4 50 -6 -6 1021.0 1023.0 -0.5
06 18.04 С 7-12
{14}
20 км 1/0
[Ci fib]
+3.0 -11.4 34 -2 0 1022.1 1024.1
09 18.04 С 8-15
{16}
20 км 3/0
[Ci fib]
+6.7 -13.2 23 +3 +5 1022.4 1024.4
12 18.04 СВ 6-12
{15}
20 км ясно +9.1 -13.6 19 +6 +9 1022.6 1024.5
15 18.04 СВ 5-10
{14}
20 км 1/0
[Ci fib]
+8.1 -13.3 20 +5 +6 1022.6 1024.6 +9.1
18 18.04 С 3 20 км ясно +2.8 -7.9 45 -0 -0 1024.4 1026.4
21 18.04 С 3 20 км ясно +0.2 -6.7 60 -4 -4 1024.8 1026.8
00 19.04 С 3 20 км 1/0
[Ci fib]
-1.7 -6.9 68 -6 -6 1024.5 1026.5
03 19.04 С 4 20 км 3/0
[Cs]
-2.1 -7.5 66 -8 -7 1024.9 1026.9 -3.0
06 19.04 СВ 4 20 км 8/0
[Cs]
+7.0 -10.8 27 +4 +10 1025.6 1027.6
09 19.04 СВ 4
{11}
20 км 8/0
[Cs]
+9.5 -13.1 19 +8 +16 1025.3 1027.2
12 19.04 В 4
{12}
20 км 9/0
[Cs]
+10.6 -14.8 15 +9 +13 1024.7 1026.7
15 19.04 СВ 3
{10}
20 км 10/0
[Cs]
+9.9 -15.5 15 +9 +9 1024.4 1026.4 +11.3
18 19.04 СВ 2 20 км 8/0
[Cs]
+5.8 -11.0 29 +4 +4 1025.6 1027.6
21 19.04 СВ 3 20 км 8/0
[Cs]
+3.7 -8.7 40 +1 +1 1025.5 1027.6
00 20.04 С 3 20 км 6/0
[Cs]
+0.4 -7.0 58 -4 -4 1025.1 1027.2
03 20.04 СВ 3 20 км 10/0
[Cs]
+1.7 -8.6 46 -2 -1 1025.0 1027.0 -0.1
06 20.04 СВ 3 20 км 3/0
[Cs]
+10.7 -9.7 23 +9 +17 1025.6 1027.6
09 20.04 СВ 5 20 км 1/0
[Ci fib]
+12.3 -12.4 17 +11 +18 1025.1 1027.1
12 20.04 С 3 20 км 1/0
[Ci fib]
+13.8 -11.7 16 +13 +20 1024.3 1026.2
15 20.04 СВ 3 20 км 3/0
[Ci fib]
+13.0 -14.0 14 +12 +13 1024.1 1026.0 +14.1
18 20.04 С 2 20 км ясно +7.5 -8.3 32 +6 +6 1025.3 1027.3
21 20.04 СВ 3 20 км 3/0
[Ci fib]
+6.2 -7.5 37 +4 +4 1025.1 1027.1
00 21.04 штиль 0 20 км ясно +1.1 -3.7 70 0 0 1024.4 1026.5
03 21.04 С 2 20 км 1/0
[Ci fib]
+1.3 -4.8 64 -2 -1 1024.8 1026.8 -0.2
06 21.04 СВ 2 20 км 1/0
[Ci fib]
+11.3 -7.2 27 +11 +20 1025.3 1027.3
09 21.04 СВ 2 20 км 3/0
[Ci fib]
+14.7 -11.4 15 +15 +29 опасность
простуды
1024.9 1026.9
12 21.04 СВ 3 20 км 3/0
[Cs]
+15.9 -10.3 15 +16 +22 1024.1 1026.0
15 21.04 СВ 3 20 км ясно +14.8 -11.0 16 +14 +15 1024.0 1026.0 +16.0
18 21.04 С 2 20 км ясно +8.8 -4.8 38 +8 +8 1025.0 1027.0
21 21.04 СВ 1 20 км ясно +6.6 -6.1 40 +6 +6 1025.6 1027.6
00 22.04 штиль 0 20 км ясно +3.2 -1.9 69 +2 +2 1025.3 1027.3
03 22.04 штиль 0 20 км ясно +3.9 -3.3 59 +3 +5 1025.3 1027.4 +1.8

 

Местоположение метеостанции Харабали (Астраханская область, Россия): широта 47.40 долгота 47.25 высота над уровнем моря -17 м.

В архиве по умолчанию представлена погода в Харабали за последнюю неделю. Архивные данные за месяц целиком и за предыдущие месяцы, начиная с января 2011 года, Вы можете получить, выбрав интересующий диапазон дат из раскрывающегося списка и нажав кнопку "Ввод!".


*Определитесь, кто Вы:
робот инопланетянин человек

Внимание! Время в таблицах - всемирное. Для получения местного времени необходимо прибавить поправку, которая равна 4 ч.

Смотрите также архив погоды в соседних городах и на ближайших метеорологических станциях:

Погода в Досанге (Астраханская область, Россия) (74 км)
Погода в Юсте (Калмыкия, Россия) (76 км)
Погода в Верхнем Баскунчаке (Астраханская область, Россия) (99 км)
Погода в Черный Яр (Астраханская область, Россия) (113 км)
Погода в Жанауштогане (Атырауская область, Казахстан) (129 км)
Погода в Астрахани (Астраханская область, Россия) (136 км)
Погода в Утте (Калмыкия, Россия) (148 км)
Погода в Урде (Западно-Казахстанская область, Казахстан) (153 км)
Погода в Зеленге (Астраханская область, Россия) (171 км)
Погода в Ганюшкино (Атырауская область, Казахстан) (177 км)

Пояснения к столбцам:

Ветер - указаны скорость ветра в м/с - средняя за 10 мин, порывы в срок и между сроками (в фигурных скобках) и направление, откуда дует ветер: С - северный, СВ - северо-восточный, В - восточный, ЮВ - юго-восточный, Ю - южный, ЮЗ - юго-западный, З - западный, СЗ - северо-западный.
Видимость - горизонтальная дальность видимости в метрах или километрах. При видимости от 1 до 10 км при отсутствии осадков обычно наблюдается дымка, при ухудшении видимости до 1 км и менее - туман. В сухую погоду видимость может ухудшаться дымом, пылью или мглою.
Явления - указаны атмосферные явления, наблюдавшиеся в срок или в последний час перед сроком; фигурными скобками обозначены явления, наблюдавшиеся между сроками (за 1-3 часа до срока); квадратными скобками обозначены град или гололедные отложения с указанием их диаметра в мм.
Облачность - указаны через наклонную черту общая и нижняя облачность в баллах и высота нижней границы облаков в метрах; квадратными скобками обозначены формы облаков: Ci - перистые, Cs - перисто-слоистые, Cc - перисто-кучевые, Ac - высококучевые, As - высокослоистые, Sc - слоисто-кучевые, Ns - слоисто-дождевые, Cu - кучевые, Cb - кучево-дождевые. Подробнее классификацию облаков см. в Атласе облаков (PDF).
T - Температура воздуха - температура, измеренная на высоте 2 м над землей.
Td - Температура точки росы - температура, при понижении до которой содержащийся в воздухе водяной пар достигнет насыщения.
f - Относительная влажность воздуха - влажноcть воздуха, измеренная на высоте 2 м над землей.
Te - Эффективная температура - температура, которую ощущает одетый по сезону человек в тени. Характеристика душности погоды. При расчете учитывается влияние влажности воздуха и скорости ветра на теплоощущения человека.
Tes - Эффективная температура на солнце - температура, которую ощущает человек, с поправкой на солнечный нагрев. Характеристика знойности погоды. Зависит от высоты солнца над горизонтом, облачности и скорости ветра. Ночью, в пасмурную погоду, а также при ветре 12 м/с и более поправка равна нулю.
P - Атмосферное давление - приведенное к уровню моря атмосферное давление.
Po - Атмосферное давление - измеренное на уровне метеостанции атмосферное давление.
Tmin - Минимальная температура - минимум температуры воздуха на высоте 2 м над землей.
Tmax - Максимальная температура - максимум температуры воздуха на высоте 2 м над землей.
R - Количество осадков - Количество выпавших осадков за период времени, мм. При наведении курсора мыши на число - период времени, за который выпало указанное количество осадков.
R24 - Количество осадков - Количество выпавших осадков за 24 часа, мм.
S - Снежный покров - Высота снежного покрова, см. При наведении курсора мыши на число - состояние снежного покрова и степень покрытия местности в баллах.